Date String (YYYY-MM-DD hh:mm:ss) UTC,Instrument flags,Ambient pressure (hPa),Sample flow (lpm),Bypass flow (lpm),Sample temperature (°C),Ambient temperature (°C),ASC tube jacket temperature (°C),LED temperature (°C),Box temperature (°C),Sample RH (%),Span deviation,Mass concentration (μg/m³),Mass concentration (μg/m³),Mass concentration (μg/m³)
DateTimeUTC,F1_M11,P_M11,Q1_M11,Q2_M11,T1_M11,T2_M11,T3_M11,T4_M11,T5_M11,U1_M11,ZSPAN_M11,X0_M11,X2_M11,X1_M11
2023-01-04 13:00:00,,0819.3,5.00,0.00,22.1,20.7,00.0,31.0,23.6,07.3,0000.0,0004.32,0003.18,0002.96
2023-01-04 13:01:00,,0819.3,5.00,0.00,22.1,20.6,00.0,31.0,23.7,08.1,0000.0,0005.31,0003.70,0003.54
2023-01-04 13:02:00,,0819.3,5.00,0.00,22.1,20.5,00.0,31.0,23.7,08.0,0000.0,0006.31,0004.21,0004.06
2023-01-04 13:03:00,,0819.4,5.00,0.00,22.0,20.5,00.0,31.0,23.7,07.4,0000.0,0006.56,0004.39,0004.25
2023-01-04 13:04:00,,0819.5,5.00,0.00,22.0,20.4,00.0,31.0,23.6,07.0,0000.0,0007.20,0004.46,0004.31
2023-01-04 13:05:00,,0819.4,5.00,0.00,22.0,20.2,00.0,31.0,23.5,07.4,0000.0,0007.72,0004.72,0004.57
2023-01-04 13:06:00,,0819.4,5.01,0.00,21.9,20.1,00.0,30.9,23.5,07.8,0000.0,0008.06,0005.08,0004.90
2023-01-04 13:07:00,,0819.4,5.01,0.00,21.9,20.5,00.0,30.9,23.6,08.0,0000.0,0008.62,0005.63,0005.47
2023-01-04 13:08:00,,0819.4,5.00,0.00,22.0,21.6,00.0,30.9,23.9,07.4,0000.0,0008.83,0005.83,0005.70
2023-01-04 13:09:00,,0819.4,5.00,0.00,22.2,22.5,00.0,30.9,24.1,07.2,0000.0,0009.42,0006.00,0005.87
2023-01-04 13:10:00,,0819.5,4.99,0.00,22.2,22.2,00.0,30.9,24.1,07.1,0000.0,0009.44,0006.04,0005.91
2023-01-04 13:11:00,,0819.4,5.00,0.00,22.2,21.7,00.0,31.0,24.0,07.2,0000.0,0009.34,0005.96,0005.83
2023-01-04 13:12:00,,0819.5,5.01,0.00,22.2,21.4,00.0,31.0,24.0,07.5,0000.0,0009.31,0005.76,0005.65
2023-01-04 13:13:00,,0819.6,5.00,0.00,22.2,21.2,00.0,31.0,23.9,08.5,0000.0,0009.63,0006.00,0005.85
2023-01-04 13:14:00,,0819.5,4.99,0.00,22.2,21.0,00.0,31.0,23.9,09.1,0000.0,0010.84,0007.03,0006.87
2023-01-04 13:15:00,,0819.3,5.01,0.00,22.2,20.9,00.0,31.0,23.9,09.1,0000.0,0011.75,0008.16,0008.00
2023-01-04 13:16:00,,0819.4,5.00,0.00,22.2,20.8,00.0,31.0,23.8,09.3,0000.0,0012.56,0009.17,0009.04
2023-01-04 13:17:00,,0819.5,5.00,0.00,22.1,20.7,00.0,31.0,23.8,09.3,0000.0,0013.61,0010.17,0010.02
2023-01-04 13:18:00,,0819.5,4.99,0.00,22.1,20.6,00.0,31.0,23.8,09.2,0000.0,0014.43,0010.95,0010.81
2023-01-04 13:19:00,,0819.4,5.00,0.00,22.1,20.5,00.0,31.0,23.8,08.7,0000.0,0015.03,0011.51,0011.35
2023-01-04 13:20:00,,0819.5,5.01,0.00,22.1,20.9,00.0,30.9,23.8,08.7,0000.0,0015.16,0012.05,0011.88
2023-01-04 13:21:00,,0819.6,5.01,0.00,22.2,21.9,00.0,30.9,24.1,08.7,0000.0,0015.77,0012.72,0012.56
2023-01-04 13:22:00,,0819.6,4.99,0.00,22.3,22.7,00.0,30.9,24.3,08.9,0000.0,0016.60,0013.53,0013.37
2023-01-04 13:23:00,,0819.5,4.99,0.00,22.4,22.7,00.0,31.0,24.4,08.7,0000.0,0016.87,0014.01,0013.87
2023-01-04 13:24:00,,0819.5,5.00,0.00,22.4,22.3,00.0,31.1,24.3,08.7,0000.0,0016.75,0014.00,0013.88
2023-01-04 13:25:00,,0819.6,5.00,0.00,22.4,21.9,00.0,31.1,24.2,08.5,0000.0,0016.07,0013.47,0013.35
2023-01-04 13:26:00,,0819.6,4.99,0.00,22.4,21.4,00.0,31.1,24.0,08.5,0000.0,0015.71,0013.12,0013.00
2023-01-04 13:27:00,,0819.7,5.02,0.00,22.3,21.0,00.0,31.1,23.9,08.3,0000.0,0015.17,0012.60,0012.46
2023-01-04 13:28:00,,0819.6,5.00,0.00,22.2,20.6,00.0,31.1,23.7,08.2,0000.0,0014.53,0011.96,0011.84
2023-01-04 13:29:00,,0819.7,5.00,0.00,22.2,20.4,00.0,31.1,23.6,08.4,0000.0,0013.88,0011.31,0011.16
2023-01-04 13:30:00,,0819.8,5.00,0.00,22.1,20.3,00.0,31.1,23.6,08.7,0000.0,0014.72,0011.50,0011.32
2023-01-04 13:31:00,,0819.7,5.01,0.00,22.1,20.3,00.0,31.1,23.7,09.3,0000.0,0015.28,0012.00,0011.81
2023-01-04 13:32:00,,0819.7,5.00,0.00,22.1,20.3,00.0,31.0,23.6,09.3,0000.0,0015.60,0012.30,0012.12
2023-01-04 13:33:00,,0819.7,5.01,0.00,22.1,20.9,00.0,31.0,23.8,08.9,0000.0,0015.46,0012.14,0011.98
2023-01-04 13:34:00,,0819.6,5.00,0.00,22.2,22.0,00.0,31.0,24.1,08.7,0000.0,0015.41,0012.05,0011.88
2023-01-04 13:35:00,,0819.8,5.00,0.00,22.3,22.9,00.0,31.0,24.3,08.7,0000.0,0015.44,0012.07,0011.91
2023-01-04 13:36:00,,0819.9,5.00,0.00,22.4,22.6,00.0,31.0,24.4,08.6,0000.0,0015.48,0012.12,0011.98
2023-01-04 13:37:00,,0819.8,4.99,0.00,22.4,22.2,00.0,31.1,24.3,08.4,0000.0,0015.71,0012.04,0011.89
2023-01-04 13:38:00,,0819.9,5.00,0.00,22.4,21.8,00.0,31.1,24.2,08.2,0000.0,0015.77,0011.93,0011.78
2023-01-04 13:39:00,,0819.9,4.99,0.00,22.4,21.5,00.0,31.1,24.2,08.3,0000.0,0015.84,0012.00,0011.84
2023-01-04 13:40:00,,0819.9,5.00,0.00,22.4,21.3,00.0,31.1,24.1,08.4,0000.0,0015.99,0012.17,0012.03
2023-01-04 13:41:00,,0819.8,5.00,0.00,22.4,21.1,00.0,31.2,24.0,08.5,0000.0,0015.34,0012.12,0011.99
2023-01-04 13:42:00,,0819.8,5.01,0.00,22.3,21.0,00.0,31.2,24.0,08.2,0000.0,0014.87,0011.69,0011.56
2023-01-04 13:43:00,,0820.0,5.00,0.00,22.3,20.8,00.0,31.2,23.9,08.1,0000.0,0014.56,0011.27,0011.14
2023-01-04 13:44:00,,0819.9,5.00,0.00,22.2,20.6,00.0,31.1,23.8,08.1,0000.0,0014.47,0011.15,0011.00
2023-01-04 13:45:00,,0819.9,4.99,0.00,22.2,20.5,00.0,31.1,23.8,08.0,0000.0,0014.49,0011.11,0010.98
2023-01-04 13:46:00,,0819.9,4.98,0.00,22.2,20.4,00.0,31.1,23.7,08.0,0000.0,0014.23,0010.87,0010.73
2023-01-04 13:47:00,,0819.9,5.01,0.00,22.1,20.6,00.0,31.1,23.8,08.4,0000.0,0014.34,0010.96,0010.81
2023-01-04 13:48:00,,0819.9,5.01,0.00,22.2,21.6,00.0,31.0,24.0,08.4,0000.0,0014.20,0011.13,0011.00
2023-01-04 13:49:00,,0819.9,5.00,0.00,22.3,22.6,00.0,31.0,24.3,07.8,0000.0,0013.98,0011.03,0010.91
2023-01-04 13:50:00,,0819.9,5.00,0.00,22.5,22.8,00.0,31.1,24.4,07.5,0000.0,0013.67,0010.66,0010.53
2023-01-04 13:51:00,,0820.0,4.99,0.00,22.5,22.4,00.0,31.1,24.4,07.8,0000.0,0013.35,0010.36,0010.22
2023-01-04 13:52:00,,0820.0,4.99,0.00,22.5,21.9,00.0,31.2,24.3,07.6,0000.0,0012.83,0009.87,0009.75
2023-01-04 13:53:00,,0820.0,5.00,0.00,22.4,21.6,00.0,31.2,24.2,07.9,0000.0,0012.72,0009.78,0009.64
2023-01-04 13:54:00,,0819.9,5.00,0.00,22.4,21.3,00.0,31.2,24.1,08.4,0000.0,0012.91,0010.07,0009.93
2023-01-04 13:55:00,,0820.1,4.99,0.00,22.4,21.1,00.0,31.2,24.1,08.4,0000.0,0013.25,0010.38,0010.23
2023-01-04 13:56:00,,0820.2,5.00,0.00,22.4,20.9,00.0,31.2,24.0,07.8,0000.0,0012.93,0010.15,0010.03
2023-01-04 13:57:00,,0820.1,4.98,0.00,22.3,20.8,00.0,31.2,24.0,07.5,0000.0,0012.61,0009.85,0009.72
2023-01-04 13:58:00,,0820.1,5.01,0.00,22.3,20.8,00.0,31.2,24.0,07.2,0000.0,0011.95,0009.20,0009.06
2023-01-04 13:59:00,,0820.0,5.01,0.00,22.3,20.7,00.0,31.2,24.0,07.0,0000.0,0011.09,0008.42,0008.29
